Home > Weather > Cumberland > Past weeks

Flag for USA Past Weather in Cumberland, Maryland, USA — Yesterday and Last 2 Weeks

Now
65 °F

Clear.


Feels Like: 65 °F
Forecast: 63 / 85 °F
Wind: 3 mph from Southwest

Location: Eastern West Virginia Regional Airport

Current Time: Jul 1, 2016 at 12:33:08 AM

Latest Report: Jun 30, 2016 at 11:53 PM


Visibility: 10 mi

Pressure: 30.00 "Hg

Humidity: 87%

Dew Point: 61 °F

Location of CumberlandLocation

Past Weather in Cumberland — Graph

°F

Cumberland Temperature Yesterday

Maximum temperature yesterday: 81 °F (at 3:53 PM)
Minimum temperature yesterday: 53 °F (at 5:53 AM)
Average temperature yesterday: 69 °F

High & Low Weather Summary for the Past Weeks

 TemperatureHumidityPressure
High89 °F (Jun 28, 1:53 PM)100% (Jun 28, 1:53 AM)30.36 "Hg (Jun 28, 1:53 AM)
Low53 °F (Jun 30, 5:53 AM)30% (Jun 19, 4:53 PM)29.64 "Hg (Jun 16, 6:53 PM)
Average73 °F70%30.01 "Hg
* Reported Jun 15 10:53 PM — Jun 30 10:53 PM, Cumberland, Weather by CustomWeather, © 2016

Note: Actual official high and low records may vary slightly from our data, if they occured in-between our weather recording intervals... More about our weather records

Advertising

Cumberland Weather History for the Previous 24 Hours

Scroll right to see more
 ConditionsComfort  
Time TempWeatherWind HumidityBarometerVisibility
10:53 PM
Thu, Jun 30
66 °FClear.No wind84%30.00 "Hg10 mi
9:53 PM70 °FClear.No wind73%30.00 "Hg10 mi
8:53 PM71 °FPassing clouds.3 mph73%29.99 "Hg10 mi
7:53 PM76 °FPartly sunny.3 mph60%30.01 "Hg10 mi
6:53 PM77 °FScattered clouds.3 mph56%29.99 "Hg10 mi
5:53 PM80 °FPassing clouds.6 mph49%29.99 "Hg10 mi
5:03 PM80 °FPartly sunny.5 mph45%30.01 "Hg10 mi
4:53 PM80 °FPartly sunny.No wind44%30.00 "Hg10 mi
3:53 PM81 °FPartly sunny.3 mph44%30.01 "Hg10 mi
2:53 PM79 °FSunny.N/A45%30.03 "Hg10 mi
1:53 PM79 °FScattered clouds.No wind45%30.04 "Hg10 mi
12:53 PM76 °FPassing clouds.No wind47%30.05 "Hg10 mi
11:53 AM77 °FPassing clouds.7 mph52%30.06 "Hg10 mi
10:53 AM74 °FSunny.5 mph56%30.06 "Hg10 mi
9:53 AM71 °FSunny.5 mph61%30.07 "Hg10 mi
8:53 AM66 °FSunny.5 mph73%30.07 "Hg10 mi
7:53 AM63 °FSunny.No wind78%30.05 "Hg10 mi
6:53 AM57 °FSunny.No wind90%30.06 "Hg10 mi
5:53 AM53 °FClear.No wind96%30.05 "Hg10 mi
4:53 AM54 °FClear.No wind93%30.04 "Hg10 mi
3:53 AM54 °FClear.5 mph93%30.05 "Hg10 mi
2:53 AM58 °FClear.No wind84%30.04 "Hg10 mi
1:53 AM57 °FClear.No wind87%30.04 "Hg10 mi
12:53 AM59 °FClear.3 mph81%30.04 "Hg10 mi
Weather by CustomWeather, © 2016

See weather overviewHow to use our weather pages